Location: Asheville, NC
(35.6000°N, 82.5500°W)
Time: 12:06:25
(UTC-04:00)

O/OREOS (USA 219) - Visible Passes

Search period start: 14 August 2018 00:00
Search period end: 24 August 2018 00:00
Orbit: 621 x 646 km, 72.0° (Epoch: 22 May)

Date Brightness Start Highest point End Pass type
(mag) Time Alt. Az. Time Alt. Az. Time Alt. Az.
14 Aug ? 06:09:18 10° SSW 06:13:47 77° WNW 06:18:15 10° NNE visible
15 Aug ? 04:53:33 10° SSE 04:56:46 20° E 05:00:00 10° NE visible
16 Aug ? 05:15:08 15° S 05:18:36 48° ESE 05:22:54 10° NNE visible
17 Aug ? 05:37:31 20° SSW 05:40:35 67° WNW 05:45:03 10° NNE visible
18 Aug ? 04:22:19 20° SE 04:23:32 22° ESE 04:26:59 10° NE visible
18 Aug ? 05:59:48 15° WSW 06:02:45 28° WNW 06:06:37 10° N visible
19 Aug ? 04:44:33 47° SSE 04:45:23 55° ESE 04:49:45 10° NNE visible
19 Aug ? 06:23:05 10° W 06:25:07 13° WNW 06:27:09 10° NNW visible
20 Aug ? 05:06:43 52° WSW 05:07:23 59° WNW 05:11:49 10° NNE visible
21 Aug ? 03:51:21 23° E 03:51:21 23° E 03:53:57 10° NE visible
21 Aug ? 05:28:49 24° W 05:29:35 25° WNW 05:33:18 10° N visible
22 Aug ? 04:13:24 43° NE 04:13:24 43° NE 04:16:35 10° NNE visible
22 Aug ? 05:50:52 11° WNW 05:51:59 11° WNW 05:53:27 10° NW visible
23 Aug ? 04:35:24 39° NNW 04:35:24 39° NNW 04:38:34 10° N visible
